LOT3KJ EPWA-LTFM

Flight info

Callsign LOT3KJ
Flight time N/A
Altitude 37000
Route XIMBA N195 NATEV DCT ROBTU DCT KENIN DCT KARIL DCT BUVAK DCT RIXEN
Aircraft E190/M-SDE3GILORVW/S

Departure

Time 2026-05-03 23:21
Airport Warsaw Chopin Airport (EPWA)

Arrival

Time N/A
Airport İstanbul Airport (LTFM)
Time Latitude Longitude Altitude Speed Heading
2026-05-03 22:43 52.17377 20.97053 365 ft 0 kts 240°
2026-05-03 23:08 52.17377 20.97052 365 ft 0 kts 240°
2026-05-03 23:08 52.17377 20.97054 365 ft 1 kts 240°
2026-05-03 23:08 52.17384 20.97075 365 ft 2 kts 243°
2026-05-03 23:09 52.17391 20.97097 365 ft 2 kts 242°
2026-05-03 23:09 52.17398 20.97118 365 ft 2 kts 243°
2026-05-03 23:09 52.17399 20.97141 365 ft 2 kts 298°
2026-05-03 23:09 52.17391 20.97153 365 ft 1 kts 333°
2026-05-03 23:10 52.17389 20.97155 365 ft 0 kts 333°
2026-05-03 23:11 52.17390 20.97155 365 ft 0 kts 333°
2026-05-03 23:12 52.17394 20.97152 365 ft 2 kts 333°
2026-05-03 23:12 52.17428 20.97122 365 ft 10 kts 331°
2026-05-03 23:12 52.17498 20.97058 365 ft 11 kts 333°
2026-05-03 23:13 52.17568 20.96999 365 ft 10 kts 331°
2026-05-03 23:13 52.17620 20.96931 365 ft 8 kts 282°
2026-05-03 23:13 52.17596 20.96818 365 ft 15 kts 238°
2026-05-03 23:13 52.17531 20.96642 365 ft 19 kts 236°
2026-05-03 23:14 52.17451 20.96450 365 ft 21 kts 238°
2026-05-03 23:14 52.17374 20.96390 365 ft 3 kts 135°
2026-05-03 23:14 52.17334 20.96565 365 ft 20 kts 120°
2026-05-03 23:14 52.17324 20.96607 365 ft 0 kts 81°
2026-05-03 23:15 52.17371 20.96738 365 ft 14 kts 33°
2026-05-03 23:15 52.17390 20.96750 365 ft 2 kts 349°
2026-05-03 23:15 52.17466 20.96665 365 ft 6 kts 290°
2026-05-03 23:15 52.17471 20.96624 365 ft 11 kts 272°
2026-05-03 23:16 52.17460 20.96491 365 ft 11 kts 248°
2026-05-03 23:16 52.17413 20.96401 365 ft 10 kts 191°
2026-05-03 23:16 52.17351 20.96439 365 ft 10 kts 153°
2026-05-03 23:16 52.17283 20.96495 365 ft 10 kts 153°
2026-05-03 23:17 52.17216 20.96553 365 ft 10 kts 152°
2026-05-03 23:17 52.17141 20.96617 365 ft 13 kts 153°
2026-05-03 23:17 52.17050 20.96697 365 ft 15 kts 153°
2026-05-03 23:17 52.16951 20.96780 365 ft 17 kts 152°
2026-05-03 23:18 52.16838 20.96879 365 ft 21 kts 152°
2026-05-03 23:18 52.16678 20.97023 365 ft 28 kts 140°
2026-05-03 23:18 52.16577 20.97104 365 ft 5 kts 154°
2026-05-03 23:18 52.16519 20.97158 365 ft 15 kts 150°
2026-05-03 23:19 52.16446 20.97206 365 ft 6 kts 193°
2026-05-03 23:19 52.16439 20.97170 365 ft 3 kts 302°
2026-05-03 23:19 52.16465 20.97104 365 ft 11 kts 295°
2026-05-03 23:19 52.16472 20.97080 365 ft 0 kts 295°
2026-05-03 23:20 52.16533 20.96853 365 ft 62 kts 294°
2026-05-03 23:20 52.16825 20.95798 365 ft 140 kts 296°
2026-05-03 23:20 52.17300 20.94098 541 ft 181 kts 292°
2026-05-03 23:21 52.17820 20.92053 872 ft 218 kts 288°
2026-05-03 23:21 52.18353 20.89643 1554 ft 238 kts 286°
2026-05-03 23:21 52.18527 20.86969 2249 ft 250 kts 255°
2026-05-03 23:21 52.17862 20.84495 3045 ft 220 kts 247°
2026-05-03 23:22 52.16922 20.79952 4448 ft 224 kts 255°
2026-05-03 23:22 52.16540 20.77441 5227 ft 234 kts 256°
2026-05-03 23:22 52.16187 20.74816 6030 ft 243 kts 257°
2026-05-03 23:23 52.15816 20.72140 6846 ft 248 kts 246°
2026-05-03 23:23 52.14774 20.69982 7709 ft 246 kts 214°
2026-05-03 23:23 52.13429 20.68294 8560 ft 248 kts 220°
2026-05-03 23:23 52.12088 20.66537 9369 ft 251 kts 220°
2026-05-03 23:24 52.10726 20.64785 10199 ft 252 kts 219°
2026-05-03 23:24 52.09365 20.63097 11018 ft 249 kts 216°
2026-05-03 23:24 52.08026 20.61361 11824 ft 247 kts 220°
2026-05-03 23:24 52.06690 20.59663 12622 ft 246 kts 220°
2026-05-03 23:25 52.05353 20.57970 13415 ft 245 kts 220°
2026-05-03 23:25 52.04032 20.56301 14197 ft 243 kts 220°
2026-05-03 23:25 52.02700 20.54621 14989 ft 241 kts 221°
2026-05-03 23:25 52.01397 20.52978 15764 ft 238 kts 221°
2026-05-03 23:26 52.00124 20.51376 16519 ft 234 kts 221°
2026-05-03 23:26 51.98849 20.49773 17282 ft 230 kts 221°
2026-05-03 23:26 51.97622 20.48231 18007 ft 225 kts 222°
2026-05-03 23:26 51.96400 20.46697 18721 ft 220 kts 222°
2026-05-03 23:27 51.95041 20.45713 19410 ft 219 kts 182°
2026-05-03 23:27 51.93648 20.46472 19968 ft 225 kts 136°
2026-05-03 23:27 51.92477 20.48424 19964 ft 249 kts 141°
2026-05-03 23:27 51.91265 20.50316 20574 ft 243 kts 138°
2026-05-03 23:28 51.90092 20.52217 21178 ft 239 kts 137°
2026-05-03 23:28 51.88891 20.54202 21403 ft 250 kts 136°
2026-05-03 23:28 51.87685 20.56195 21437 ft 271 kts 137°
2026-05-03 23:28 51.86299 20.58423 21611 ft 282 kts 130°
2026-05-03 23:29 51.85453 20.61153 22446 ft 272 kts 102°
2026-05-03 23:29 51.84990 20.64114 22936 ft 275 kts 107°
2026-05-03 23:29 51.84401 20.67048 23444 ft 277 kts 109°
2026-05-03 23:29 51.83747 20.69963 23965 ft 278 kts 110°
2026-05-03 23:30 51.83060 20.72873 24481 ft 279 kts 111°
2026-05-03 23:30 51.82356 20.75782 24988 ft 280 kts 111°
2026-05-03 23:30 51.81644 20.78692 25487 ft 280 kts 111°
2026-05-03 23:30 51.80933 20.81580 25975 ft 281 kts 111°
2026-05-03 23:31 51.80210 20.84503 26454 ft 281 kts 110°
2026-05-03 23:31 51.79487 20.87421 26927 ft 282 kts 110°
2026-05-03 23:31 51.78762 20.90342 27384 ft 282 kts 110°
2026-05-03 23:31 51.78029 20.93292 27835 ft 282 kts 110°
2026-05-03 23:32 51.77305 20.96203 28261 ft 283 kts 110°
2026-05-03 23:32 51.76568 20.99156 28690 ft 283 kts 110°
2026-05-03 23:32 51.75840 21.02073 29100 ft 283 kts 110°
2026-05-03 23:32 51.75113 21.04985 29497 ft 284 kts 110°
2026-05-03 23:33 51.74368 21.07962 29896 ft 284 kts 109°
2026-05-03 23:33 51.73631 21.10903 30275 ft 285 kts 109°
2026-05-03 23:33 51.72889 21.13858 30661 ft 285 kts 109°
2026-05-03 23:33 51.72156 21.16774 31031 ft 285 kts 109°
2026-05-03 23:34 51.71410 21.19742 31398 ft 285 kts 109°
2026-05-03 23:34 51.70666 21.22696 31752 ft 286 kts 109°
2026-05-03 23:34 51.69916 21.25669 32098 ft 286 kts 109°
2026-05-03 23:34 51.69171 21.28618 32425 ft 286 kts 109°
2026-05-03 23:35 51.68420 21.31588 32745 ft 287 kts 109°
2026-05-03 23:35 51.67669 21.34554 33055 ft 287 kts 109°
2026-05-03 23:35 51.66916 21.37525 33355 ft 288 kts 109°
2026-05-03 23:35 51.66095 21.40460 33640 ft 290 kts 120°
2026-05-03 23:36 51.64873 21.43037 33907 ft 293 kts 134°
2026-05-03 23:36 51.63284 21.45055 34157 ft 295 kts 148°
2026-05-03 23:36 51.61516 21.46720 34420 ft 296 kts 148°
2026-05-03 23:36 51.59742 21.48408 34678 ft 297 kts 147°
2026-05-03 23:37 51.57974 21.50097 34912 ft 298 kts 147°
2026-05-03 23:37 51.56185 21.51811 35141 ft 298 kts 147°
2026-05-03 23:37 51.54400 21.53521 35372 ft 298 kts 147°
2026-05-03 23:37 51.52629 21.55216 35587 ft 299 kts 147°
2026-05-03 23:38 51.50834 21.56934 35797 ft 299 kts 147°
2026-05-03 23:38 51.49054 21.58636 36000 ft 300 kts 147°
2026-05-03 23:38 51.47269 21.60340 36198 ft 301 kts 147°
2026-05-03 23:38 51.45471 21.62056 36391 ft 301 kts 147°
2026-05-03 23:39 51.43690 21.63754 36570 ft 302 kts 147°
2026-05-03 23:39 51.41875 21.65483 36759 ft 302 kts 148°
2026-05-03 23:39 51.40073 21.67198 36960 ft 304 kts 148°
2026-05-03 23:39 51.38232 21.68948 36969 ft 311 kts 148°
2026-05-03 23:40 51.34435 21.72553 36988 ft 326 kts 148°
2026-05-03 23:40 51.30436 21.76342 36992 ft 343 kts 148°
2026-05-03 23:41 51.26246 21.80304 36995 ft 361 kts 148°
2026-05-03 23:41 51.21835 21.84465 36991 ft 379 kts 148°
2026-05-03 23:42 51.17176 21.88850 36992 ft 398 kts 148°
2026-05-03 23:42 51.12333 21.93398 37001 ft 417 kts 148°
2026-05-03 23:43 51.07221 21.98185 36995 ft 436 kts 148°
2026-05-03 23:43 51.01874 22.03180 36992 ft 455 kts 148°
2026-05-03 23:44 50.96350 22.08325 36987 ft 464 kts 148°
2026-05-03 23:44 50.90758 22.13319 36975 ft 462 kts 155°
2026-05-03 23:45 50.84597 22.15986 36990 ft 465 kts 172°
2026-05-03 23:45 50.78158 22.15709 36993 ft 464 kts 189°
2026-05-03 23:46 50.71767 22.14297 36986 ft 464 kts 187°
2026-05-03 23:46 50.65395 22.13092 36985 ft 465 kts 186°
2026-05-03 23:47 50.58979 22.11898 36984 ft 464 kts 186°
2026-05-03 23:47 50.52609 22.10716 36986 ft 465 kts 186°
2026-05-03 23:48 50.46189 22.09529 36988 ft 466 kts 186°
2026-05-03 23:48 50.39729 22.08337 36992 ft 465 kts 186°
2026-05-03 23:49 50.33349 22.07164 36990 ft 465 kts 186°
2026-05-03 23:49 50.26928 22.05986 36996 ft 465 kts 186°
2026-05-03 23:50 50.20524 22.04814 36999 ft 466 kts 186°
2026-05-03 23:50 50.14078 22.03638 36999 ft 466 kts 186°
2026-05-03 23:51 50.07667 22.02472 37004 ft 467 kts 186°
2026-05-03 23:51 50.01221 22.01302 37004 ft 467 kts 186°
2026-05-03 23:52 49.94798 22.00139 37008 ft 466 kts 186°
2026-05-03 23:52 49.88361 21.98978 37005 ft 467 kts 186°
2026-05-03 23:53 49.81919 21.97818 37009 ft 467 kts 186°
2026-05-03 23:53 49.75451 21.96657 37018 ft 468 kts 186°
2026-05-03 23:54 49.68995 21.95501 37029 ft 470 kts 186°
2026-05-03 23:54 49.62517 21.94344 37030 ft 470 kts 186°
2026-05-03 23:55 49.56068 21.93195 37029 ft 469 kts 186°
2026-05-03 23:55 49.49568 21.92041 37048 ft 471 kts 186°
2026-05-03 23:56 49.43100 21.90895 37047 ft 470 kts 186°
2026-05-03 23:56 49.36569 21.89741 37055 ft 472 kts 186°
2026-05-03 23:57 49.30064 21.88595 37064 ft 472 kts 186°
2026-05-03 23:57 49.23569 21.87454 37063 ft 472 kts 186°
2026-05-03 23:58 49.17072 21.86315 37065 ft 472 kts 186°
2026-05-03 23:58 49.10538 21.85173 37065 ft 472 kts 186°
2026-05-03 23:59 49.04029 21.84038 37070 ft 474 kts 186°
2026-05-03 23:59 48.97506 21.82904 37068 ft 474 kts 186°
2026-05-04 00:00 48.90965 21.81812 37065 ft 474 kts 182°
2026-05-04 00:00 48.84427 21.82555 37069 ft 471 kts 171°
2026-05-04 00:01 48.77981 21.83928 37058 ft 471 kts 171°
2026-05-04 00:01 48.71492 21.85302 37058 ft 472 kts 171°
2026-05-04 00:02 48.65005 21.86672 37059 ft 473 kts 171°
2026-05-04 00:02 48.58489 21.88045 37062 ft 473 kts 171°
2026-05-04 00:03 48.51997 21.89409 37067 ft 472 kts 170°
2026-05-04 00:03 48.45506 21.90769 37067 ft 471 kts 171°
2026-05-04 00:04 48.39063 21.92175 37060 ft 471 kts 166°
2026-05-04 00:04 48.33013 21.95541 37070 ft 465 kts 147°
2026-05-04 00:05 48.27530 22.00625 37066 ft 464 kts 146°
2026-05-04 00:05 48.22008 22.05684 37067 ft 464 kts 146°
2026-05-04 00:06 48.16515 22.10693 37066 ft 464 kts 146°
2026-05-04 00:06 48.11035 22.15677 37065 ft 464 kts 146°
2026-05-04 00:07 48.05531 22.20670 37069 ft 464 kts 145°
2026-05-04 00:07 48.00007 22.25670 37066 ft 464 kts 145°
2026-05-04 00:08 47.94510 22.30631 37068 ft 463 kts 145°
2026-05-04 00:08 47.88987 22.35604 37065 ft 463 kts 145°
2026-05-04 00:09 47.83512 22.40520 37063 ft 463 kts 145°
2026-05-04 00:09 47.78111 22.45668 37069 ft 459 kts 138°
2026-05-04 00:10 47.73081 22.51522 37065 ft 460 kts 138°
2026-05-04 00:10 47.68045 22.57344 37068 ft 460 kts 138°
2026-05-04 00:11 47.63049 22.63097 37044 ft 448 kts 137°
2026-05-04 00:11 47.60534 22.65887 36473 ft 454 kts 128°
2026-05-04 00:11 47.58978 22.69645 37536 ft 423 kts 112°
2026-05-04 00:12 47.57462 22.73450 37037 ft 445 kts 123°
2026-05-04 00:12 47.55421 22.76947 37089 ft 457 kts 132°
2026-05-04 00:12 47.50874 22.83547 37079 ft 458 kts 134°
2026-05-04 00:13 47.46059 22.89710 37073 ft 458 kts 136°
2026-05-04 00:13 47.41217 22.95701 37075 ft 458 kts 136°
2026-05-04 00:14 47.36317 23.01733 37082 ft 458 kts 136°
2026-05-04 00:14 47.31462 23.07692 37082 ft 458 kts 136°
2026-05-04 00:15 47.26566 23.13687 37079 ft 457 kts 136°
2026-05-04 00:15 47.21663 23.19676 37079 ft 458 kts 136°
2026-05-04 00:16 47.16802 23.25599 37080 ft 457 kts 136°
2026-05-04 00:16 47.11917 23.31537 37081 ft 457 kts 136°
2026-05-04 00:17 47.07037 23.37454 37080 ft 457 kts 136°
2026-05-04 00:17 47.02142 23.43375 37084 ft 456 kts 136°
2026-05-04 00:18 46.97288 23.49232 37076 ft 456 kts 136°
2026-05-04 00:18 46.92455 23.55050 37082 ft 457 kts 136°
2026-05-04 00:19 46.87585 23.60896 37061 ft 456 kts 136°
2026-05-04 00:19 46.82670 23.66784 37060 ft 457 kts 136°
2026-05-04 00:20 46.77744 23.72670 37067 ft 457 kts 136°
2026-05-04 00:20 46.72840 23.78516 37063 ft 457 kts 136°
2026-05-04 00:21 46.67949 23.84332 37060 ft 456 kts 136°
2026-05-04 00:21 46.63020 23.90180 37068 ft 457 kts 136°
2026-05-04 00:22 46.58116 23.95982 37063 ft 457 kts 136°
2026-05-04 00:22 46.53198 24.01788 37065 ft 456 kts 136°
2026-05-04 00:23 46.48282 24.07577 37066 ft 456 kts 136°
2026-05-04 00:23 46.43357 24.13364 37070 ft 456 kts 136°
2026-05-04 00:24 46.38456 24.19108 37059 ft 457 kts 136°
2026-05-04 00:24 46.33498 24.24905 37064 ft 456 kts 136°
2026-05-04 00:25 46.28565 24.30660 37057 ft 457 kts 136°
2026-05-04 00:25 46.23659 24.36368 37059 ft 456 kts 136°
2026-05-04 00:26 46.18702 24.42123 37064 ft 457 kts 136°
2026-05-04 00:26 46.13757 24.47851 37114 ft 457 kts 136°
2026-05-04 00:27 46.08836 24.53536 37118 ft 458 kts 135°
2026-05-04 00:27 46.03886 24.59242 37120 ft 457 kts 136°
2026-05-04 00:28 45.98957 24.64972 37094 ft 454 kts 135°